CW0762 Weather Reports


Display with metric or nautical units.
time (UTC)temp
F
wind
direction
speed
MPH
gust
MPH
rain 1hr
in
rain 24hr
in
rain mn
in
humidity
%
barometer
mb
20260509173103 85 279 0.0 3.0 0.00 0.00 0.00 62 1011.0
20260509171541 84 304 0.0 3.0 0.00 0.00 0.00 60 1011.3
20260509170035 84 281 0.0 3.0 0.00 0.00 0.00 62 1011.3
20260509164530 83 281 1.0 3.0 0.00 0.00 0.00 63 1011.3
20260509163028 82 265 0.0 3.0 0.00 0.00 0.00 64 1011.4
20260509161527 81 275 0.0 4.0 0.00 0.00 0.00 65 1011.4
20260509160024 80 115 0.0 7.0 0.00 0.00 0.00 66 1011.4
20260509154521 79 263 1.0 3.0 0.00 0.00 0.00 67 1011.2
20260509153029 78 355 0.0 3.0 0.00 0.00 0.00 69 1011.3
20260509151515 77 305 0.0 2.0 0.00 0.00 0.00 72 1011.5
20260509150011 76 283 0.0 4.0 0.00 0.00 0.00 75 1011.4
20260509144507 75 28 0.0 2.0 0.00 0.00 0.00 78 1011.4
20260509143010 74 46 0.0 4.0 0.00 0.00 0.00 82 1011.3
20260509141501 73 339 0.0 2.0 0.00 0.00 0.00 85 1011.4
20260509140100 72 319 0.0 1.0 0.00 0.00 0.00 87 1011.4
20260509134555 71 287 0.0 3.0 0.00 0.00 0.00 90 1011.3
20260509133054 69 290 0.0 3.0 0.00 0.00 0.00 92 1011.3
20260509131602 69 286 0.0 2.0 0.00 0.00 0.00 93 1011.2
20260509130124 68 270 0.0 2.0 0.00 0.00 0.00 93 1011.3
20260509124553 68 265 0.0 3.0 0.00 0.08 0.00 94 1011.2
20260509123118 67 78 0.0 4.0 0.00 0.08 0.00 94 1011.3
20260509121551 67 42 0.0 1.0 0.00 0.08 0.00 94 1011.2
20260509120053 67 56 0.0 1.0 0.00 0.08 0.00 93 1011.0
20260509114624 67 53 0.0 2.0 0.00 0.08 0.00 93 1011.0
20260509113058 67 67 0.0 1.0 0.00 0.08 0.00 92 1010.6
20260509111551 67 67 0.0 1.0 0.00 0.08 0.00 92 1010.1
20260509110058 67 346 0.0 1.0 0.00 0.08 0.00 91 1009.9
20260509104547 68 347 0.0 1.0 0.00 0.32 0.00 91 1009.5
20260509103048 68 341 0.0 1.0 0.00 0.32 0.00 90 1009.3
20260509101556 68 341 0.0 1.0 0.00 0.32 0.00 90 1009.3
20260509100043 69 341 0.0 1.0 0.00 0.32 0.00 89 1009.2
20260509094542 69 340 0.0 3.0 0.00 0.32 0.00 89 1009.0
20260509093042 70 62 0.0 0.0 0.00 0.32 0.00 88 1008.8
20260509091544 70 62 0.0 0.0 0.00 0.32 0.00 89 1008.5
20260509090043 70 62 0.0 1.0 0.00 0.32 0.00 89 1008.8
20260509084541 70 82 0.0 5.0 0.00 0.33 0.00 89 1008.5
20260509083040 70 65 0.0 6.0 0.00 0.33 0.00 89 1006.8
20260509081537 70 58 3.0 7.0 0.00 0.33 0.00 90 1007.2
20260509080033 70 60 1.0 9.0 0.00 0.33 0.00 90 1008.1
20260509074529 70 145 2.0 7.0 0.00 0.35 0.00 90 1009.1
20260509073027 70 130 4.0 9.0 0.00 0.35 0.00 90 1010.0
20260509071524 69 132 2.0 9.0 0.00 0.35 0.00 91 1010.3
20260509070022 69 129 3.0 9.0 0.00 0.35 0.00 91 1010.7
20260509064520 69 125 2.0 6.0 0.00 0.35 0.00 91 1011.1
20260509063027 69 107 0.0 4.0 0.00 0.35 0.00 90 1011.4
20260509061521 69 86 0.0 3.0 0.00 0.35 0.00 88 1011.3
20260509060017 69 58 0.0 2.0 0.00 0.35 0.00 87 1011.1
20260509054514 70 55 0.0 1.0 0.00 0.35 0.00 86 1011.2
20260509053014 70 55 0.0 0.0 0.00 0.35 0.00 86 1011.8
20260509051509 70 55 0.0 0.0 0.00 0.35 0.00 86 1012.0
20260509050015 70 55 0.0 1.0 0.00 0.35 0.35 85 1012.7
20260509044506 71 56 0.0 0.0 0.00 0.35 0.35 83 1011.1
20260509043005 71 56 0.0 1.0 0.00 0.35 0.35 83 1011.2
20260509041512 72 56 0.0 4.0 0.00 0.35 0.35 83 1011.1
20260509040005 72 53 0.0 4.0 0.00 0.35 0.35 82 1010.6
20260509034504 72 55 1.0 4.0 0.00 0.35 0.35 82 1010.3
20260509033004 72 315 0.0 2.0 0.00 0.35 0.35 82 1011.1
20260509031517 72 38 0.0 2.0 0.00 0.35 0.35 83 1011.5
20260509030005 72 38 0.0 2.0 0.00 0.35 0.35 82 1010.9
20260509024503 72 61 0.0 4.0 0.00 0.35 0.35 82 1010.1
20260509023004 72 46 0.0 3.0 0.00 0.35 0.35 82 1009.8
20260509021505 72 44 0.0 3.0 0.00 0.35 0.35 81 1009.2
20260509020001 72 49 0.0 6.0 0.00 0.35 0.35 81 1009.2
20260509014502 72 45 1.0 5.0 0.00 0.35 0.35 80 1009.0
20260509013003 73 38 1.0 4.0 0.00 0.35 0.35 79 1009.3
20260509011601 73 41 0.0 2.0 0.00 0.35 0.35 78 1009.6
20260509010104 73 40 1.0 5.0 0.00 0.35 0.35 77 1009.3
20260509004609 73 57 0.0 5.0 0.00 0.35 0.35 76 1009.1
20260509003104 74 54 0.0 3.0 0.00 0.35 0.35 75 1008.9
20260509001559 74 111 0.0 4.0 0.00 0.35 0.35 74 1008.8
20260509000058 74 55 1.0 7.0 0.00 0.35 0.35 72 1008.8
20260508234557 75 70 2.0 5.0 0.00 0.35 0.35 72 1009.0
20260508233057 75 50 2.0 6.0 0.00 0.35 0.35 69 1009.2
20260508231558 76 146 1.0 6.0 0.00 0.35 0.35 69 1009.2
20260508230124 76 46 1.0 5.0 0.00 0.35 0.35 68 1009.2
20260508224601 76 56 1.0 6.0 0.00 0.35 0.35 67 1009.4
20260508223053 77 69 1.0 7.0 0.00 0.35 0.35 67 1009.4
20260508221553 77 148 1.0 7.0 0.00 0.35 0.35 66 1009.4
20260508220117 77 65 1.0 7.0 0.00 0.35 0.35 65 1009.5
20260508214556 77 58 1.0 7.0 0.00 0.35 0.35 65 1009.4
20260508213053 77 61 3.0 7.0 0.00 0.35 0.35 65 1009.4
20260508211550 77 59 1.0 7.0 0.00 0.35 0.35 65 1009.8
20260508210048 76 49 1.0 5.0 0.00 0.35 0.35 65 1009.9
20260508204546 75 49 2.0 5.0 0.00 0.35 0.35 66 1010.0
20260508203046 74 35 0.0 7.0 0.00 0.35 0.35 70 1010.9
20260508201545 74 94 0.0 4.0 0.00 0.35 0.35 69 1011.7
20260508200042 74 22 1.0 4.0 0.00 0.35 0.35 69 1011.6
20260508194540 75 61 1.0 7.0 0.00 0.35 0.35 70 1011.7
20260508193040 75 126 0.0 8.0 0.00 0.35 0.35 68 1011.7
20260508191537 76 57 0.0 4.0 0.00 0.35 0.35 67 1011.8
20260508190042 77 64 1.0 8.0 0.00 0.35 0.35 65 1011.9
20260508184543 77 126 2.0 5.0 0.00 0.35 0.35 64 1011.9
20260508183035 77 131 0.0 5.0 0.00 0.35 0.35 65 1012.1
20260508181543 77 144 2.0 6.0 0.00 0.35 0.35 65 1012.4
20260508180028 76 100 2.0 6.0 0.00 0.35 0.35 65 1012.8
20260508174534 76 52 2.0 6.0 0.00 0.35 0.35 65 1012.9